User: anonymous   Login
Location: NJAA Observatory
(40.6819°N, 74.8979°W)
Time: 19:29:58
(UTC-04:00)
Language:

ALOS - Orbit

View from above orbital plane
View from above orbital plane
View from above satellite
View from above satellite

Ground track
Ground track

The orbit data is extracted from the following two-line orbital elements,

1 28931U 06002A   14297.81508623  .00001524  00000-0  31708-3 0   857
2 28931 097.9674 351.2608 0002292 115.1260 011.8891 14.61386470466254
Epoch (UTC): 24 October 2014 19:33:43
Eccentricity: 0.0002292
inclination: 97.9674°
perigee height: 687 km
apogee height: 690 km
right ascension of ascending node: 351.2608°
argument of perigee: 115.1260°
revolutions per day: 14.61386470
mean anomaly at epoch: 11.8891°
orbit number at epoch: 46625

The dashed part of the orbit path shows where the satellite is in the earth's shadow,  

DLR